Date,TemperatureHighF,TemperatureAvgF,TemperatureLowF,DewpointHighF,DewpointAvgF,DewpointLowF,HumidityHigh,HumidityAvg,HumidityLow,PressureMaxIn,PressureMinIn,WindSpeedMaxMPH,WindSpeedAvgMPH,GustSpeedMaxMPH,PrecipitationSumIn
2013-2-1,44.7,41.2,33.4,41.3,36.4,28.3,94,83,69,29.86,29.36,28,8,28,0.05
2013-2-2,42.2,37.2,31.6,37.5,32.3,27.7,90,82,68,30.21,29.86,21,4,21,0.01
2013-2-3,50.4,46.6,39.0,48.1,43.1,36.6,96,88,75,30.04,29.51,54,20,54,0.08
2013-2-4,49.4,41.1,34.0,42.6,35.5,30.0,95,81,66,29.60,29.34,54,33,54,0.09
2013-2-5,46.4,41.2,34.0,40.3,35.5,30.3,95,80,66,29.64,29.07,35,18,35,0.00
2013-2-6,43.7,39.9,33.5,32.9,30.5,27.2,82,69,58,30.17,29.65,25,8,25,0.00
2013-2-7,40.9,38.6,36.3,36.4,34.4,30.6,94,85,78,30.17,30.03,16,5,16,0.00
2013-2-8,44.5,41.6,37.7,40.5,37.5,34.1,96,86,75,30.19,30.09,15,3,15,0.05
2013-2-9,41.4,40.1,37.8,40.1,38.9,36.1,97,95,94,30.12,29.80,20,5,20,0.14
2013-2-10,38.9,36.1,34.1,36.9,34.9,33.1,96,95,92,29.80,29.39,25,15,25,0.04
2013-2-11,38.5,38.5,38.4,36.7,36.7,36.6,93,93,93,29.48,29.47,17,13,17,0.00
2013-2-13,47.6,46.7,46.0,45.6,44.6,42.8,97,92,86,29.53,29.51,27,16,27,1.41
2013-2-14,46.9,45.5,43.7,43.1,41.9,40.7,94,87,81,29.85,29.53,30,15,30,0.06
2013-2-15,48.1,44.9,38.6,42.3,40.5,37.0,95,84,71,30.12,29.85,21,7,21,0.00
2013-2-16,38.8,38.8,38.8,37.5,37.5,37.5,95,95,95,30.12,30.12,1,1,0,0.00
2013-2-17,38.8,38.8,38.8,37.5,37.5,37.5,95,95,95,30.12,30.12,1,1,0,0.00
2013-2-18,46.9,39.6,32.9,39.0,34.8,30.8,94,84,69,30.14,30.09,8,2,8,0.00
2013-2-19,33.5,33.5,33.5,32.0,32.0,32.0,94,94,94,30.14,30.14,1,1,1,0.00
2013-2-20,42.2,39.7,33.5,39.1,36.4,29.6,94,88,80,30.31,30.14,18,9,18,0.00
2013-2-21,38.7,35.0,30.8,30.5,28.6,26.1,89,78,67,30.33,30.28,20,10,20,0.00
2013-2-22,37.1,35.1,33.6,27.9,25.7,24.0,75,68,63,30.34,30.29,16,4,16,0.00
2013-2-23,42.0,35.8,33.6,32.6,28.5,25.6,87,75,60,30.42,30.28,10,3,10,0.00
2013-2-24,45.6,37.3,32.1,36.1,32.5,29.4,91,83,64,30.50,30.41,10,2,10,0.00
2013-2-25,41.1,34.3,30.8,35.1,31.5,28.9,94,90,78,30.65,30.50,8,2,8,0.00
2013-2-26,47.7,39.0,31.7,37.3,34.3,29.8,95,84,66,30.71,30.64,17,6,17,0.00
2013-2-27,50.4,36.9,30.5,44.2,34.9,29.5,97,93,74,30.72,30.61,14,2,14,0.00
2013-2-28,46.3,41.4,33.8,42.7,39.0,32.4,97,91,85,30.61,30.52,7,2,7,0.01